Location: Presov
(49.0000°N, 21.2500°E)
Time: 06:55:14
(UTC+02:00)

Transit 2A Rocket - Pass Details

Date: 14 April 2021
Orbit: 594 x 909 km, 66.7° (Epoch: 07 May)

Event Time Altitude Azimuth Distance (km) Brightness Sun altitude
Rises 02:24:06 0° 319° (NW) 2,868 8.2 -26.9°
Reaches altitude 10° 02:26:23 10° 313° (NW) 1,982 7.3 -26.7°
Enters shadow 02:27:09 15° 309° (NW) 1,693 6.8 -26.6°
Maximum altitude 02:30:35 44° 242° (WSW) 892 - -26.3°
Drops below altitude 10° 02:35:04 10° 171° (S) 2,104 - -25.9°
Sets 02:37:32 0° 165° (SSE) 3,065 - -25.7°
